| time (UTC) | temp C | wind direction | speed KPH | gust KPH | rain 1hr cm | rain 24hr cm | rain mn cm | humidity % | barometer mb |
| 20260505093837 | 11 | 100 | 4.8 | 4.8 | 0.00 | 0.00 | 0.00 | 92 | 1008.6 |
| 20260505092832 | 11 | 108 | 3.2 | 3.2 | 0.00 | 0.00 | 0.00 | 91 | 1008.8 |
| 20260505091827 | 11 | 130 | 3.2 | 8.0 | 0.00 | 0.00 | 0.00 | 91 | 1008.6 |
| 20260505090823 | 11 | 172 | 4.8 | 4.8 | 0.00 | 0.00 | 0.00 | 91 | 1008.9 |
| 20260505085823 | 11 | 126 | 4.8 | 6.4 | 0.00 | 0.00 | 0.00 | 91 | 1008.8 |
| 20260505084819 | 10 | 140 | 4.8 | 6.4 | 0.00 | 0.00 | 0.00 | 91 | 1009.0 |
| 20260505083814 | 10 | 119 | 4.8 | 6.4 | 0.00 | 0.00 | 0.00 | 92 | 1008.7 |
| 20260505082814 | 9 | 113 | 3.2 | 3.2 | 0.00 | 0.00 | 0.00 | 93 | 1008.9 |
| 20260505081813 | 9 | 113 | 3.2 | 3.2 | 0.00 | 0.00 | 0.00 | 93 | 1009.0 |
| 20260505080812 | 8 | 110 | 4.8 | 4.8 | 0.00 | 0.00 | 0.00 | 92 | 1009.0 |
| 20260505075809 | 9 | 104 | 3.2 | 3.2 | 0.00 | 0.00 | 0.00 | 92 | 1009.1 |
| 20260505074804 | 10 | 89 | 3.2 | 3.2 | 0.00 | 0.00 | 0.00 | 90 | 1009.0 |
| 20260505073804 | 10 | 89 | 3.2 | 3.2 | 0.00 | 0.00 | 0.00 | 90 | 1009.2 |
| 20260505072759 | 10 | 87 | 3.2 | 3.2 | 0.00 | 0.00 | 0.00 | 89 | 1008.9 |
| 20260505071756 | 10 | 95 | 4.8 | 4.8 | 0.00 | 0.00 | 0.00 | 89 | 1009.0 |
| 20260505070751 | 10 | 83 | 3.2 | 3.2 | 0.00 | 0.00 | 0.00 | 88 | 1009.0 |
| 20260505065748 | 10 | 83 | 3.2 | 3.2 | 0.00 | 0.00 | 0.00 | 88 | 1009.2 |
| 20260505064749 | 10 | 83 | 3.2 | 3.2 | 0.00 | 0.00 | 0.00 | 88 | 1009.2 |
| 20260505063743 | 10 | 83 | 3.2 | 3.2 | 0.00 | 0.00 | 0.00 | 88 | 1009.1 |
| 20260505062742 | 10 | 83 | 3.2 | 3.2 | 0.00 | 0.00 | 0.00 | 88 | 1009.1 |
| 20260505061742 | 10 | 83 | 3.2 | 3.2 | 0.00 | 0.00 | 0.00 | 88 | 1009.0 |
| 20260505060737 | 10 | 85 | 3.2 | 3.2 | 0.00 | 0.00 | 0.00 | 87 | 1009.3 |
| 20260505055735 | 10 | 85 | 3.2 | 3.2 | 0.00 | 0.00 | 0.00 | 87 | 1009.5 |
| 20260505054735 | 10 | 93 | 3.2 | 3.2 | 0.00 | 0.00 | 0.00 | 86 | 1009.6 |
| 20260505053732 | 10 | 110 | 1.6 | 3.2 | 0.00 | 0.00 | 0.00 | 85 | 1009.4 |
| 20260505052731 | 10 | 110 | 1.6 | 3.2 | 0.00 | 0.00 | 0.00 | 85 | 1009.5 |
| 20260505051730 | 10 | 89 | 3.2 | 3.2 | 0.00 | 0.00 | 0.00 | 85 | 1009.5 |
| 20260505050726 | 10 | 91 | 3.2 | 3.2 | 0.00 | 0.00 | 0.00 | 84 | 1009.5 |
| 20260505041723 | 11 | 85 | 3.2 | 3.2 | 0.00 | 0.00 | 0.00 | 79 | 1010.0 |
| 20260505040718 | 11 | 85 | 3.2 | 3.2 | 0.00 | 0.00 | 0.00 | 79 | 1009.7 |
| 20260505035717 | 11 | 85 | 3.2 | 3.2 | 0.00 | 0.00 | 0.00 | 79 | 1009.9 |
| 20260505034715 | 12 | 106 | 3.2 | 3.2 | 0.00 | 0.00 | 0.00 | 78 | 1009.7 |
| 20260505033714 | 12 | 99 | 3.2 | 4.8 | 0.00 | 0.00 | 0.00 | 77 | 1009.9 |
| 20260505032710 | 12 | 141 | 3.2 | 4.8 | 0.00 | 0.00 | 0.00 | 77 | 1009.7 |
| 20260505031710 | 12 | 141 | 6.4 | 6.4 | 0.00 | 0.00 | 0.00 | 76 | 1009.8 |
| 20260505030709 | 12 | 144 | 6.4 | 6.4 | 0.00 | 0.00 | 0.00 | 75 | 1009.8 |
| 20260505025706 | 12 | 120 | 3.2 | 4.8 | 0.00 | 0.00 | 0.00 | 75 | 1009.9 |
| 20260505024703 | 12 | 175 | 3.2 | 3.2 | 0.00 | 0.00 | 0.00 | 74 | 1009.9 |
| 20260505023657 | 12 | 102 | 3.2 | 6.4 | 0.00 | 0.00 | 0.00 | 73 | 1009.7 |
| 20260505022657 | 13 | 168 | 6.4 | 11.3 | 0.00 | 0.00 | 0.00 | 72 | 1009.9 |
| 20260505021656 | 13 | 151 | 3.2 | 3.2 | 0.00 | 0.00 | 0.00 | 71 | 1009.9 |
| 20260505020655 | 13 | 153 | 3.2 | 3.2 | 0.00 | 0.00 | 0.00 | 71 | 1010.1 |
| 20260505015654 | 13 | 182 | 6.4 | 6.4 | 0.00 | 0.00 | 0.00 | 70 | 1009.8 |
| 20260505014653 | 13 | 180 | 8.0 | 9.7 | 0.00 | 0.00 | 0.00 | 69 | 1009.7 |
| 20260505013653 | 13 | 180 | 3.2 | 6.4 | 0.00 | 0.00 | 0.00 | 68 | 1009.9 |
| 20260505012649 | 13 | 195 | 4.8 | 9.7 | 0.00 | 0.00 | 0.00 | 67 | 1009.6 |
| 20260505011647 | 14 | 228 | 8.0 | 8.0 | 0.00 | 0.00 | 0.00 | 66 | 1009.4 |
| 20260505010644 | 14 | 124 | 3.2 | 9.7 | 0.00 | 0.00 | 0.00 | 65 | 1009.3 |
| 20260505005643 | 14 | 198 | 4.8 | 11.3 | 0.00 | 0.00 | 0.00 | 64 | 1009.3 |
| 20260505004638 | 15 | 146 | 4.8 | 11.3 | 0.00 | 0.00 | 0.00 | 63 | 1009.0 |
| 20260505003638 | 15 | 153 | 6.4 | 8.0 | 0.00 | 0.00 | 0.00 | 62 | 1009.0 |
| 20260505002637 | 15 | 105 | 4.8 | 11.3 | 0.00 | 0.00 | 0.00 | 61 | 1008.7 |
| 20260505001632 | 15 | 120 | 6.4 | 9.7 | 0.00 | 0.00 | 0.00 | 61 | 1008.5 |
| 20260505000632 | 15 | 230 | 12.9 | 14.5 | 0.00 | 0.00 | 0.00 | 60 | 1008.3 |
| 20260504235632 | 15 | 184 | 4.8 | 9.7 | 0.00 | 0.00 | 0.00 | 59 | 1008.1 |
| 20260504234631 | 16 | 204 | 9.7 | 11.3 | 0.00 | 0.00 | 0.00 | 57 | 1008.2 |
| 20260504233630 | 16 | 188 | 6.4 | 14.5 | 0.00 | 0.00 | 0.00 | 56 | 1008.0 |
| 20260504232631 | 16 | 198 | 8.0 | 12.9 | 0.00 | 0.00 | 0.00 | 55 | 1007.7 |
| 20260504231630 | 17 | 197 | 9.7 | 22.5 | 0.00 | 0.00 | 0.00 | 54 | 1007.6 |
| 20260504230628 | 17 | 242 | 9.7 | 11.3 | 0.00 | 0.00 | 0.00 | 53 | 1007.6 |
| 20260504225625 | 18 | 158 | 3.2 | 16.1 | 0.00 | 0.00 | 0.00 | 50 | 1007.5 |
| 20260504224623 | 18 | 223 | 9.7 | 11.3 | 0.00 | 0.00 | 0.00 | 49 | 1007.4 |
| 20260504223623 | 18 | 184 | 6.4 | 19.3 | 0.00 | 0.00 | 0.00 | 48 | 1007.6 |
| 20260504222622 | 18 | 204 | 11.3 | 20.9 | 0.00 | 0.00 | 0.00 | 46 | 1007.5 |
| 20260504221622 | 19 | 193 | 6.4 | 17.7 | 0.00 | 0.00 | 0.00 | 45 | 1007.5 |
| 20260504220621 | 20 | 190 | 9.7 | 16.1 | 0.00 | 0.00 | 0.00 | 44 | 1007.5 |
| 20260504215620 | 20 | 211 | 11.3 | 20.9 | 0.00 | 0.00 | 0.00 | 43 | 1007.4 |
| 20260504214620 | 20 | 141 | 8.0 | 14.5 | 0.00 | 0.00 | 0.00 | 42 | 1007.6 |
| 20260504213619 | 20 | 132 | 3.2 | 20.9 | 0.00 | 0.00 | 0.00 | 42 | 1007.4 |
| 20260504212618 | 21 | 202 | 11.3 | 12.9 | 0.00 | 0.00 | 0.00 | 41 | 1007.4 |
| 20260504211612 | 20 | 145 | 14.5 | 17.7 | 0.00 | 0.00 | 0.00 | 41 | 1007.4 |
| 20260504210612 | 21 | 125 | 12.9 | 16.1 | 0.00 | 0.00 | 0.00 | 40 | 1007.0 |
| 20260504205612 | 21 | 177 | 8.0 | 17.7 | 0.00 | 0.00 | 0.00 | 40 | 1007.2 |
| 20260504204608 | 21 | 141 | 4.8 | 17.7 | 0.00 | 0.00 | 0.00 | 40 | 1007.1 |
| 20260504203604 | 20 | 213 | 12.9 | 27.4 | 0.00 | 0.00 | 0.00 | 40 | 1007.0 |
| 20260504202602 | 21 | 221 | 9.7 | 17.7 | 0.00 | 0.00 | 0.00 | 39 | 1007.1 |
| 20260504201602 | 22 | 151 | 3.2 | 9.7 | 0.00 | 0.00 | 0.00 | 33 | 1007.2 |
| 20260504200602 | 21 | 144 | 3.2 | 24.1 | 0.00 | 0.00 | 0.00 | 37 | 1007.2 |
| 20260504195600 | 22 | 202 | 16.1 | 25.7 | 0.00 | 0.00 | 0.00 | 31 | 1007.3 |
| 20260504194559 | 22 | 219 | 14.5 | 22.5 | 0.00 | 0.00 | 0.00 | 31 | 1007.4 |
| 20260504193557 | 22 | 214 | 9.7 | 16.1 | 0.00 | 0.00 | 0.00 | 31 | 1007.2 |
| 20260504192554 | 23 | 206 | 9.7 | 9.7 | 0.00 | 0.00 | 0.00 | 30 | 1007.3 |
| 20260504191550 | 22 | 206 | 17.7 | 19.3 | 0.00 | 0.00 | 0.00 | 30 | 1007.4 |
| 20260504190548 | 22 | 202 | 14.5 | 16.1 | 0.00 | 0.00 | 0.00 | 31 | 1007.5 |
| 20260504185547 | 22 | 203 | 14.5 | 17.7 | 0.00 | 0.00 | 0.00 | 31 | 1007.4 |
| 20260504184545 | 21 | 222 | 12.9 | 33.8 | 0.00 | 0.00 | 0.00 | 32 | 1007.5 |
| 20260504183543 | 21 | 202 | 12.9 | 24.1 | 0.00 | 0.00 | 0.00 | 31 | 1007.8 |
| 20260504182538 | 21 | 205 | 12.9 | 22.5 | 0.00 | 0.00 | 0.00 | 32 | 1007.7 |
| 20260504181538 | 22 | 207 | 8.0 | 16.1 | 0.00 | 0.00 | 0.00 | 32 | 1007.9 |
| 20260504180535 | 21 | 193 | 9.7 | 19.3 | 0.00 | 0.00 | 0.00 | 33 | 1007.9 |
| 20260504175530 | 21 | 236 | 16.1 | 22.5 | 0.00 | 0.00 | 0.00 | 32 | 1008.3 |
| 20260504174525 | 21 | 213 | 12.9 | 30.6 | 0.00 | 0.00 | 0.00 | 31 | 1008.2 |
| 20260504173524 | 20 | 221 | 24.1 | 24.1 | 0.00 | 0.00 | 0.00 | 32 | 1008.3 |
| 20260504172524 | 21 | 216 | 12.9 | 25.7 | 0.00 | 0.00 | 0.00 | 32 | 1008.2 |
| 20260504171523 | 20 | 224 | 9.7 | 14.5 | 0.00 | 0.00 | 0.00 | 32 | 1008.4 |
| 20260504170521 | 20 | 238 | 9.7 | 20.9 | 0.00 | 0.00 | 0.00 | 33 | 1008.7 |
| 20260504150500 | 18 | 199 | 11.3 | 33.8 | 0.00 | 0.00 | 0.00 | 34 | 1009.8 |
| 20260504140452 | 17 | 196 | 8.0 | 8.0 | 0.00 | 0.00 | 0.00 | 38 | 1010.3 |
| 20260504130435 | 14 | 192 | 6.4 | 14.5 | 0.00 | 0.00 | 0.00 | 44 | 1011.1 |
| 20260504110409 | 6 | 102 | 3.2 | 6.4 | 0.00 | 0.00 | 0.00 | 79 | 1011.2 |
| 20260504100354 | 5 | 81 | 4.8 | 4.8 | 0.00 | 0.00 | 0.00 | 75 | 1010.8 |